Location: Tafessasset
(32.5899°N, 5.4824°W)
Time: 09:03:27
(UTC+00:00)

STARLINK-1119 - Pass Details

Date: 18 February 2020
Orbit: 548 x 551 km, 53.0° (Epoch: 09 April)

Event Time Altitude Azimuth Distance (km) Brightness Sun altitude
Exits shadow 04:11:21 12° 92° (E) 1,710 6.8 -36.6°
Drops below altitude 10° 04:11:52 10° 86° (E) 1,824 7.0 -36.5°
Enters shadow 05:15:49 -58° 225° (SW) 11,427 10.3 -23.1°
Maximum altitude 05:48:35 50° 317° (NW) 707 3.8 -16.2°
